Regional Weather Roundup
Issued by NWS

Home | Current Version | Previous Version | Graphics & Text | Print | Product List | Glossary On
Versions: 1 2 3 4 5 6 7 8 9 10 11 12 13 14 15 16 17 18 19 20 21 22 23 24 25 26 27 28 29 30 31 32 33 34 35 36 37 38 39 40 41 42 43 44 45 46 47 48 49 50
000
ASUS43 KLOT 200008
RWRIL

ILLINOIS REGIONAL WEATHER ROUNDUP
NATIONAL WEATHER SERVICE CHICAGO/ROMEOVILLE IL
600 PM CST SUN NOV 19 2017

NOTE: "FAIR" INDICATES FEW OR NO CLOUDS BELOW 12,000 FEET WITH NO
SIGNIFICANT WEATHER AND/OR OBSTRUCTIONS TO VISIBILITY.

* THESE STATIONS ARE NOT UNDER NWS QUALITY CONTROL. THEY ALSO MAY NOT
  REPORT WEATHER SUCH AS PRECIPITATION OR FOG.

ILZ001-002-007-009-015-016-024-200100-
NORTHWEST ILLINOIS

CITY           SKY/WX    TMP DP  RH WIND       PRES   REMARKS
MOLINE         CLEAR     32  20  61 S5        30.08F WCI  27
6HR MIN TEMP:  32; 6HR MAX TEMP:  38;

STERLING*        N/A     29  23  78 MISG      30.09S
SAVANNA*       CLEAR     32  22  67 S8        30.07F WCI  24
$$

ILZ003-004-008-010-011-017-018-200100-
NORTH CENTRAL ILLINOIS

CITY           SKY/WX    TMP DP  RH WIND       PRES   REMARKS
ROCKFORD       CLEAR     30  19  63 SW9       30.08S WCI  22
6HR MIN TEMP:  30; 6HR MAX TEMP:  35;

FREEPORT*      CLEAR     28  20  73 SW8       30.07F WCI  20
ROCHELLE*      CLEAR     28  23  81 SW7       30.09R WCI  21
DE KALB*       CLEAR     30  21  70 SW10      30.07R WCI  21
PERU*          CLEAR     28  19  71 W6        30.11S WCI  21
$$

ILZ005-006-012>014-019>023-200100-
NORTHEAST ILLINOIS

CITY           SKY/WX    TMP DP  RH WIND       PRES   REMARKS
CHICAGO-OHARE  CLEAR     32  18  56 W7        30.06R WCI  26
6HR MIN TEMP:  31; 6HR MAX TEMP:  36;

CHICAGO-MIDWAY CLEAR     33  19  56 SW9       30.07R WCI  25
6HR MIN TEMP:  33; 6HR MAX TEMP:  36;

AURORA         CLEAR     30  21  69 SW8       30.08R WCI  22
6HR MIN TEMP:  29; 6HR MAX TEMP:  34;

LANSING*       CLEAR     31  22  70 W9        30.08R WCI  23
JOLIET*        CLEAR     32  23  70 W6        30.10R WCI  26
WAUKEGAN       CLEAR     30  18  60 VRB5      30.03R WCI  25
6HR MIN TEMP:  30; 6HR MAX TEMP:  35;

DUPAGE AIRPORT CLEAR     30  21  69 W12       30.06R WCI  20
6HR MIN TEMP:  29; 6HR MAX TEMP:  34;

KANKAKEE*      CLEAR     30  21  69 W10       30.12R WCI  21
WHEELING       CLEAR     32  19  58 W6        30.07R WCI  26
6HR MIN TEMP:  32; 6HR MAX TEMP:  36;

MORRIS*        CLEAR     30  22  72 W8        30.10R WCI  22
ROMEOVILLE*    CLEAR     30  23  73 W8        30.09R WCI  23
NORTHERLY ISL    N/A     33  17  52 W7          N/A  WCI  27
$$

LMZ740>746-200100-
SOUTHERN LAKE MICHIGAN

STATION/POSITION SKY/WX   TEMP    WIND        PRES    VSBY  WAVE
                          AIR SEA DIR/SP/G                  HT/PER
                          (F)     (DEG/KT/KT) (MB)    (MI)  (FT/S)
SOUTHERN BUOY              35 49  290/ 17/ 19 1016.5          4/ 7
HARRISON CRIB              34     270/ 19/ 22   N/A
BURNHAM HARBOR             33     290/ 10/ 16   N/A
CALUMET HARBOR             33     240/  7/ 10 1017.5R
BURNS HARBOR               35     240/  9/ 22 1017.9R
MICHIGAN CITY              35     240/ 20/ 23   N/A
$$

ILZ025>027-034>036-040-047-049-050-058-095>099-200100-
WEST-CENTRAL ILLINOIS

CITY           SKY/WX    TMP DP  RH WIND       PRES   REMARKS
QUINCY         CLEAR     36  22  56 S6        30.14S WCI  31
GALESBURG*     CLEAR     30  23  74 S5        30.12F WCI  26
MACOMB*        CLEAR     31  25  77 S6        30.15F WCI  25
JACKSONVILLE*  CLEAR     32  22  66 S3        30.16S
PITTSFIELD*    CLEAR     35  23  62 S5        30.17S WCI  31
$$

ILZ028>032-037-038-041>044-048-051>054-059>061-200100-
CENTRAL ILLINOIS

CITY           SKY/WX    TMP DP  RH WIND       PRES   REMARKS
PONTIAC        CLEAR     30  25  83 W6        30.13R WCI  24
BLOOMINGTON    CLEAR     29  21  72 SW6       30.13R WCI  23
DECATUR        CLEAR     33  20  58 W5        30.16R WCI  29
PEORIA         CLEAR     31  20  63 SW5       30.14R WCI  26
6HR MIN TEMP:  31; 6HR MAX TEMP:  37;

LACON*         CLEAR     31  20  62 SW6       30.11F WCI  25
LINCOLN*       CLEAR     33  22  63 CALM      30.15S
SPRINGFIELD    CLEAR     33  22  63 SW5       30.17R WCI  29
6HR MIN TEMP:  31; 6HR MAX TEMP:  39;

TAYLORVILLE    CLEAR     33  22  65 W5        30.18R WCI  28
6HR MIN TEMP:  32; 6HR MAX TEMP:  37;

$$

ILZ033-039-045-046-055>057-062-063-200100-
EAST-CENTRAL ILLINOIS

CITY           SKY/WX    TMP DP  RH WIND       PRES   REMARKS
CHAMPAIGN      CLEAR     31  24  75 W12       30.15R WCI  22
DANVILLE*      CLEAR     30  22  73 W8        30.10S WCI  23
RANTOUL*       CLEAR     33  26  76 W8        30.14R WCI  25
MATTOON        CLEAR     32  22  66 W6        30.15S WCI  26
PARIS*         CLEAR     30  26  84 SW3       30.15F
$$

ILZ079-100>102-200100-
SOUTHWEST ILLINOIS

CITY           SKY/WX    TMP DP  RH WIND       PRES   REMARKS
ALTON          CLEAR     34  25  69 SW7       30.19S WCI  28
BELLEVILLE     CLEAR     33  20  57 CALM      30.19S
CAHOKIA*       CLEAR     37  19  48 W3        30.20S
SPARTA*        CLEAR     36  21  55 CALM      30.21F
$$

ILZ064>066-069>071-074>076-080>082-084>086-088>090-092>094-200100-
SOUTH-CENTRAL ILLINOIS

CITY           SKY/WX    TMP DP  RH WIND       PRES   REMARKS
CARBONDALE     CLEAR     31  22  69 S3        30.20S
6HR MIN TEMP:  31; 6HR MAX TEMP:  42;

CAIRO*         CLEAR     35  24  62 CALM      30.23R
EFFINGHAM*     CLEAR     31  24  74 CALM      30.20R
MARION         CLEAR     32  21  64 NW6       30.22R WCI  26
MT. VERNON     CLEAR     33  22  63 CALM      30.20R
CENTRALIA*     CLEAR     33  24  70 CALM      30.19S
SALEM*         CLEAR     34  22  61 W5        30.19S WCI  30
METROPOLIS*    CLEAR     37  23  58 NW3       30.24R
$$

ILZ067-068-072-073-078-083-087-091-200100-
SOUTHEAST ILLINOIS

CITY           SKY/WX    TMP DP  RH WIND       PRES   REMARKS
LAWRENCEVILLE  CLEAR     34  21  59 W3        30.19R
FLORA*         CLEAR     34  23  63 W3        30.16S
FAIRFIELD*     CLEAR     32  22  66 CALM      30.19S
HARRISBURG*    CLEAR     34  23  63 CALM      30.22R
ROBINSON*      CLEAR     30  23  74 W5        30.19S WCI  25
CARMI*         CLEAR     32  23  68 W6        30.20R WCI  26
$$

ABBREVIATIONS USED IN REMARKS
   TC - TEMPERATURE IN CELSIUS
  WCI - WIND CHILL INDEX
   HX - HEAT INDEX
  VSB - VISIBILITY
$$





USA.gov is the U.S. government's official web portal to all federal, state and local government web resources and services.